Regional Weather Roundup
Issued by NWS

Home | Current Version | Previous Version | Text Only | Print | Product List | Glossary Off
Versions: 1 2 3 4 5 6 7 8 9 10 11 12 13 14 15 16 17 18 19 20 21 22 23 24 25 26 27

000
ASUS45 KCYS 281610
RWRWY

WYOMING REGIONAL WEATHER ROUNDUP
NATIONAL WEATHER SERVICE CHEYENNE WY
1000 AM MDT THU APR 28 2016

NOTE:  "FAIR" INDICATES FEW OR NO CLOUDS BELOW 12,000 FEET
WITH NO SIGNIFICANT WEATHER AND/OR OBSTRUCTIONS TO VISIBILITY.

WYZ001-281700-
YELLOWSTONE NATIONAL PARK

CITY           SKY/WX    TMP DP  RH WIND       PRES   REMARKS
LK YELLOWSTONE   N/A     32  22  66 VRB5      29.90S WCI  27
W YELLOWSTONE  NOT AVBL

$$
WYZ002>013-054>058-071-098>099-281700-
NORTHERN WYOMING

CITY           SKY/WX    TMP DP  RH WIND       PRES   REMARKS
JACKSON        PTSUNNY   43  27  52 MISG      29.84
CODY           CLOUDY    32  28  86 N12G20    30.00S WCI  23
GREYBULL       CLOUDY    37  31  78 CALM      30.00S
WORLAND        CLOUDY    37  30  75 N6        30.00F WCI  32
SHERIDAN       CLOUDY    35  30  82 VRB3      30.05S
BUFFALO        CLOUDY    32  28  85 N7        30.03R WCI  26
GILLETTE       CLOUDY    32  30  92 N10       30.02R WCI  24
HULETT         LGT SNOW  32  32 100 N5        30.03S WCI  27
NEWCASTLE      CLOUDY    37  27  65 NW3       30.00S

$$
WYZ014>020-022>026-101>103-281700-
CENTRAL WYOMING

CITY           SKY/WX    TMP DP  RH WIND       PRES   REMARKS
BIG PINEY      PTSUNNY   37  28  70 SW6       29.86S WCI  32
PINEDALE       PTSUNNY   37  30  75 W9        29.85S WCI  31
DUBOIS         LGT SNOW  28  27  93 SE16G22   29.90S WCI  17
LANDER         CLOUDY    32  29  88 NE8       29.96R FOG     WCI  25
RIVERTON       CLOUDY    33  29  85 NE16      29.97S WCI  23
CASPER         CLOUDY    33  26  75 NE13      29.98S WCI  24
DOUGLAS        CLOUDY    35  29  78 N7        30.00S WCI  29

$$
WYZ021-027>030-104>119-281700-
SOUTHERN WYOMING

CITY           SKY/WX    TMP DP  RH WIND       PRES   REMARKS
EVANSTON       CLOUDY    33  25  72 E21G29    29.79S WCI  21
FORT BRIDGER   LGT SNOW  32  32 100 E15       29.86S WCI  22
ROCK SPRINGS   PTSUNNY   32  24  72 NE26G37   29.85S WCI  18
DIXON          CLOUDY    42  30  62 NE9       29.79S
RAWLINS        CLOUDY    31  24  75 E21G26    29.90F WCI  18
SARATOGA       CLOUDY    34  27  75 E6        29.87F WCI  29
LARAMIE        CLOUDY    29  24  82 E8        29.91R WCI  21
CHEYENNE       CLOUDY    33  27  78 VRB5      29.96R WCI  29
TORRINGTON     PTSUNNY   41  28  60 VRB6      30.00R
PINE BLUFFS    CLOUDY    36  30  80 NE9       29.98S WCI  29

$$




USA.gov is the U.S. government's official web portal to all federal, state and local government web resources and services.